Location: 81360 Arifat, France
(43.7204°N, 2.3408°E)
Time: 12:59:10
(UTC+02:00)

Envisat - Pass Details

Date: 03 October 2021
Orbit: 764 x 766 km, 98.2° (Epoch: 20 October)

Event Time Altitude Azimuth Distance (km) Brightness Sun altitude
Rises 06:00:11 0° 26° (NNE) 3,239 6.8 -20.6°
Reaches altitude 10° 06:02:58 10° 41° (NE) 2,307 6.3 -20.1°
Maximum altitude 06:06:57 23° 93° (E) 1,591 5.5 -19.4°
Drops below altitude 10° 06:10:55 10° 145° (SE) 2,293 5.7 -18.7°
Sets 06:13:40 0° 159° (SSE) 3,214 6.3 -18.2°
